DECAYED

STARLINK-31653, 59485 (Decayed)

Orbit data source: Space-Track

STARLINK-31653, 59485 was a payload satellite owned by SpaceX/Seattle (US) in LEO that was launched on Sat, 13 Apr 2024 UTC via an FALCON 9 launch vehicle from the Air Force Eastern Test Range (AFETR). Payload-class satellites include a variety of spacecraft equipped with specific instruments for various scientific and technological missions. These include communications satellites like Starlink; space stations such as the ISS; scientific satellites like the Hubble; Earth observation satellites from companies like Planet Labs, Umbra, and HawkEye 360; GPS; miniature CubeSats for education and research; and military/defense satellites.

Not visible in the next 10 days
Identifier
59485, 2024-071B
Orbit
Decayed
Country
Flag of USUS
Related business
Manufacturer
SpaceX/Seattle
Mission
Decayed Commercial Communications
Bus & Motor
STARLINK V2M, Unknown motor
Mass
730 kg wet, ~700 kg dry
Launch date (UTC)
2024-04-13 (2 years ago)
Launch vehicle
FALCON 9
Launch site
Air Force Eastern Test Range (AFETR)
Object type
Payload
Rocket body
Debris
Shape & HBR
Box + 2 Pan, 17.7 m
Radar Cross Section
33.884 m², Large (>1 m²)

Expand to show TLE details & history
Last TLE update: 1 year ago

TLE from 1 year ago
0 STARLINK-31653
1 59485U 24071B   25057.09246377  .02515948  88479-5  13567-2 0  9991
2 59485  42.9796 279.0662 0012667 266.5974 231.2367 16.18649718 50834
Epoch: 2025-02-26T02:13Z
TLE epoch observation values (Epoch: 2025-02-26T02:13:08.869Z)
Latitude
27.40322°
Longitude
-123.99179°
Altitude
228.605 km
Speed
7.771 km/s
True Right ascension
04h 21m 55s
True Declination
27° 15' 06"
Sunlit
Object was in daylight at epoch
Visualization orbit readout
Latitude
Unknown
Longitude
Unknown
Altitude
Unknown
Speed
Unknown
Apparent Right ascension
Unknown
Apparent Declination
Unknown
Sunlit
N/A
Visualization observer readout
Local Sidereal Time
21:28:05
Azimuth
Unknown
Elevation
Unknown
Doppler factor
Unknown
Orbital elements
Apogee altitude
233.61 km
Perigee altitude
216.881 km
Semi-major axis
6,603.383 km
Eccentricity
0.00127
Inclination
42.9796°
RAAN
279.0662°
Arg. of periapsis
266.5974°
True anomaly
231.12363°
Mean anomaly
231.2367°
Eccentric anomaly
231.18015°
Mean motion
4.04477 °/min
Orbital period
89 mins
BSTAR
0.0013567
Loading maneuver chart data...
Computing Atmospheric mass density...
Loading historical data...
Loading historical data...
Loading historical data...
Loading historical data...
Loading historical data...
Loading historical data...
Loading historical data...

Documentation

Showing up to 5 results
|